Terminal Aerodrome Forecast
Issued by NWS

Home | Current Version | Previous Version | Text Only | Print | Product List | Glossary On
Versions: 1 2 3 4 5 6 7 8 9 10 11 12 13 14 15 16 17 18 19 20
000
FTUS46 KMTR 032336
TAFSNS
TAF
KSNS 032336Z 0400/0424 27014G20KT P6SM SKC
     FM040300 26010KT P6SM FEW015
     FM041000 25012KT P6SM BKN015
     FM041700 26013KT P6SM FEW018
     FM042100 26015G21KT P6SM SKC=

USA.gov is the U.S. government's official web portal to all federal, state and local government web resources and services.